Flag for Poland Weather past 2 weeks in Poznan, Poland

Now
82 °F

Passing clouds.


Feels Like: 81 °F
Forecast: 66 / 85 °F
Wind: 15 mph from East

Location: Poznan Airport

Current Time: Jul 22, 2014 at 2:18:42 PM

Latest Report: Jul 22, 2014 at 2:00 PM


Visibility: N/A

Pressure: 30.01 "Hg

Humidity: 32%

Dew point: 50 °F

Location of PoznanLocation

Historic Weather in Poznan — Graph

°F

Poznan temperature yesterday

Maximum temperature yesterday: 86 °F (at 4:30 PM)
Minimum temperature yesterday: 66 °F (at 3:30 AM)
Average temperature yesterday: 76 °F

Past Weeks' High & Low Weather Summary

 TemperatureHumidityPressure
High95 °F (Jul 20, 5:30 PM)100% (Jul 9, 10:30 PM)30.18 "Hg (Jul 9, 10:30 PM)
Low54 °F (Jul 13, 5:00 AM)23% (Jul 20, 5:30 PM)29.62 "Hg (Jul 9, 10:00 AM)
Average73 °F65%29.91 "Hg
* Reported Jul 7 1:00 PM — Jul 22 1:00 PM, Poznan, Weather by CustomWeather, © 2014

Note: Actual official high and low records may vary slightly from our data, if they occured in-between our weather recording intervals... More about our weather records

Advertising

Poznan weather history for previous 24 hours

 ConditionsComfort  
Time TempWeatherWind HumidityBarometerVisibility
1:00 PM
Jul 22
82 °FSunny.17 mph37%30.01 "Hg10 mi
12:30 PM81 °FPassing clouds.14 mph39%30.01 "HgN/A
12:00 PM79 °FPassing clouds.14 mph45%29.98 "HgN/A
11:30 AM79 °FScattered clouds.12 mph45%30.01 "HgN/A
11:00 AM79 °FScattered clouds.13 mph48%30.01 "HgN/A
10:30 AM77 °FPassing clouds.13 mph51%29.98 "HgN/A
10:00 AM77 °FPassing clouds.13 mph54%29.98 "HgN/A
9:30 AM75 °FPassing clouds.13 mph57%29.98 "HgN/A
9:00 AM73 °FSunny.5 mph61%29.98 "Hg10 mi
8:30 AM73 °FSunny.8 mph61%29.98 "Hg10 mi
8:00 AM72 °FSunny.8 mph69%29.98 "Hg10 mi
7:30 AM70 °FSunny.6 mph73%29.98 "Hg10 mi
7:00 AM68 °FSunny.7 mph78%29.98 "Hg10 mi
6:30 AM64 °FSunny.8 mph83%29.95 "Hg10 mi
6:00 AM64 °FSunny.8 mph83%29.95 "Hg10 mi
5:30 AM64 °FClear.9 mph83%29.95 "Hg10 mi
5:00 AM66 °FClear.8 mph78%29.95 "Hg10 mi
4:30 AM66 °FClear.8 mph78%29.95 "Hg10 mi
4:00 AM66 °FClear.7 mph78%29.95 "Hg10 mi
3:30 AM68 °FClear.9 mph73%29.95 "Hg10 mi
3:00 AM68 °FClear.10 mph73%29.95 "Hg10 mi
2:30 AM68 °FClear.10 mph73%29.92 "Hg10 mi
2:00 AM68 °FClear.10 mph73%29.92 "Hg10 mi
1:30 AM70 °FClear.9 mph69%29.92 "Hg10 mi
1:00 AM70 °FClear.10 mph69%29.92 "Hg10 mi
12:30 AM70 °FClear.10 mph69%29.92 "Hg10 mi
12:00 AM72 °FClear.12 mph65%29.92 "Hg10 mi
11:30 PM
Jul 21
72 °FClear.12 mph65%29.92 "Hg10 mi
11:00 PM73 °FClear.10 mph57%29.92 "Hg10 mi
10:30 PM75 °FClear.12 mph54%29.92 "Hg10 mi
10:00 PM75 °FSunny.14 mph50%29.89 "Hg10 mi
9:30 PM77 °FSunny.10 mph42%29.89 "Hg10 mi
9:00 PM77 °FSunny.6 mph39%29.86 "Hg10 mi
8:30 PM79 °FSunny.5 mph39%29.86 "Hg10 mi
8:00 PM81 °FSunny.6 mph39%29.86 "Hg10 mi
7:30 PM81 °FSunny.8 mph39%29.86 "Hg10 mi
7:00 PM82 °FSunny.9 mph35%29.86 "Hg10 mi
6:30 PM82 °FPassing clouds.9 mph37%29.86 "HgN/A
6:00 PM84 °FPassing clouds.12 mph35%29.86 "HgN/A
5:30 PM84 °FSunny.13 mph35%29.83 "Hg10 mi
5:00 PM84 °FSunny.12 mph37%29.83 "Hg10 mi
4:30 PM86 °FPassing clouds.13 mph35%29.83 "HgN/A
4:00 PM84 °FSunny.13 mph37%29.86 "Hg10 mi
3:30 PM84 °FPassing clouds.13 mph40%29.86 "HgN/A
3:00 PM84 °FSunny.15 mph40%29.83 "Hg10 mi
2:30 PM84 °FSunny.15 mph40%29.86 "Hg10 mi
2:00 PM84 °FSunny.16 mph40%29.86 "Hg10 mi
Weather by CustomWeather, © 2014

See weather overviewHow to use our weather pages